Location: Newark
(42.8481°N, 0.4872°E)
Time: 08:36:46
(UTC+00:00)

Vanguard 3 - Pass Details

Date: 02 November 2020
Orbit: 508 x 3262 km, 33.3° (Epoch: 27 November)

Event Time Altitude Azimuth Distance (km) Brightness Sun altitude
Rises 09:33:15 0° 279° (W) 7,062 11.6 25.1°
Reaches altitude 10° 09:38:15 10° 273° (W) 6,162 11.4 25.6°
Maximum altitude 09:55:47 41° 213° (SSW) 3,932 11.3 27.3°
Drops below altitude 10° 10:09:57 10° 150° (SSE) 5,008 12.9 28.5°
Sets 10:13:33 0° 142° (SE) 5,679 12.6 28.8°
